User: anonymous   Login
Location: Unspecified
(0.0000°N, 0.0000°E)
Time: 18:41:14
(UTC+00:00)
Language:

Tiangong 2 - Orbit

View from above orbital plane
View from above orbital plane
View from above satellite
View from above satellite

Ground track
Ground track

The orbit data is extracted from the following two-line orbital elements,

1 41765U 16057A   17268.10038294  .00004937  00000-0  66772-4 0  9998
2 41765  42.7832 121.4147 0003527 238.1464 263.5777 15.58837881 58572
Epoch (UTC): 25 September 2017 02:24:33
Eccentricity: 0.0003527
inclination: 42.7832°
perigee height: 388 km
apogee height: 393 km
right ascension of ascending node: 121.4147°
argument of perigee: 238.1464°
revolutions per day: 15.58837881
mean anomaly at epoch: 263.5777°
orbit number at epoch: 5857

The dashed part of the orbit path shows where the satellite is in the earth's shadow,  

DLR